Wind_Speed
12 12 12 12 13 13 10 10 10 10 10 10 10 10 10 9 8 7 6 5 5 4 3 2 1 1 2 2 3 4 5 6 6 7 7 7 7 7 7 7 7 6 6 6 6 6 6 6 6
12 12 12 12 13 11 10 10 11 11 10 10 11 11 10 10 9 8 7 6 5 4 3 3 2 0 1 2 3 4 5 7 7 7 7 7 7 7 7 6 6 6 6 6 6 6 6 6 6
11 11 12 12 12 10 10 10 11 11 11 11 11 11 10 10 9 9 8 7 6 5 4 3 2 0 1 2 3 4 5 6 7 7 7 7 7 7 7 6 6 6 6 6 6 6 6 6 7
11 12 12 12 10 10 10 11 11 11 11 11 11 11 10 10 10 10 9 8 7 6 4 3 2 1 1 1 2 3 5 7 7 7 7 7 7 6 6 6 6 6 6 6 6 6 6 6 6
10 11 11 10 9 10 9 10 11 12 11 11 12 12 11 11 10 10 9 9 8 6 5 4 3 2 1 1 2 3 6 7 7 7 7 6 6 6 5 5 6 6 6 6 6 6 6 6 7
10 10 11 9 9 10 10 10 11 11 11 11 12 12 11 11 11 10 10 9 9 7 6 4 3 3 2 2 3 4 6 7 7 7 7 6 6 6 5 5 5 5 5 6 6 6 7 7 8
10 10 9 9 9 9 10 10 11 11 11 11 11 11 11 11 11 11 10 9 9 9 8 6 4 4 3 3 3 4 6 6 6 6 6 6 6 5 4 4 5 5 6 6 6 6 5 6 6
9 9 9 9 8 8 9 9 9 10 10 11 11 11 11 11 11 11 10 9 10 10 9 8 5 5 5 4 4 4 6 6 5 6 6 6 5 4 3 3 4 4 4 5 6 6 5 5 6
7 8 7 8 8 7 8 9 8 8 10 11 11 12 11 11 11 11 10 10 10 10 10 9 7 6 6 5 5 6 7 6 5 5 5 4 4 3 3 2 3 3 3 4 5 5 6 6 6
5 6 5 6 7 7 8 9 9 8 9 10 11 11 11 10 10 10 10 10 10 10 9 9 8 7 6 5 5 6 6 6 5 4 4 3 3 3 3 2 2 2 2 3 3 3 4 5 5
2 3 4 5 6 6 8 9 9 9 9 9 10 11 11 11 10 10 10 9 10 10 9 8 7 7 6 6 6 6 6 5 4 3 3 3 2 2 2 2 1 0 1 2 2 2 3 4 5
1 1 2 3 5 7 7 8 8 8 8 9 9 10 11 11 10 10 10 9 9 9 9 9 8 7 6 6 6 6 5 5 4 3 3 2 2 1 1 1 0 1 2 2 2 2 3 4 4
1 1 1 3 4 5 6 7 7 7 8 8 8 8 9 10 10 10 9 10 9 9 9 8 8 8 7 6 6 5 4 4 3 2 2 1 1 1 0 1 2 2 2 2 3 3 4 4 5
2 1 1 2 3 4 5 6 6 6 7 8 8 8 8 9 9 9 9 8 8 8 8 8 7 6 6 5 4 3 3 2 2 2 1 1 1 1 1 2 3 3 3 3 4 4 5 5 6
2 1 2 3 3 3 5 6 6 5 6 7 7 7 8 9 8 8 8 7 7 7 7 7 7 6 5 4 3 2 2 2 2 1 1 2 2 2 3 3 3 4 4 5 5 5 5 6 7
3 2 3 4 4 5 5 6 6 6 6 6 6 7 8 8 8 8 8 7 7 7 7 6 6 6 5 4 3 2 2 2 1 1 1 2 2 3 3 3 4 4 5 6 6 7 6 7 7
4 4 4 5 4 5 6 6 7 6 6 6 6 7 7 8 8 7 8 7 7 6 6 6 6 6 5 5 4 3 3 2 2 2 2 3 3 3 4 4 5 6 6 7 7 7 7 7 7
7 5 5 5 6 6 6 7 7 6 7 7 7 7 7 8 7 7 7 7 6 6 5 5 5 5 5 5 5 4 4 4 4 4 4 4 5 4 4 5 6 6 7 7 7 7 8 8 8
8 7 7 7 7 6 6 7 7 7 7 8 8 7 7 8 7 7 7 6 6 6 5 5 5 5 5 5 5 5 5 5 5 5 5 5 5 5 5 6 7 7 8 8 8 8 9 9 9
9 9 8 8 8 7 7 7 7 8 8 9 8 8 8 8 7 6 6 6 6 6 5 4 4 5 5 5 6 6 6 6 6 6 6 6 6 6 6 7 8 8 8 8 9 9 10 10 11
10 10 10 9 9 8 8 8 9 9 10 9 9 8 8 8 8 7 6 6 6 6 5 5 5 5 5 6 6 6 6 6 7 7 7 7 7 7 8 8 8 8 9 9 10 10 11 12 12
11 11 11 10 10 10 10 9 10 10 10 9 8 8 9 8 8 7 7 7 7 7 6 6 6 6 6 7 7 7 7 7 8 8 8 8 8 9 10 9 9 10 11 11 12 12 13 13 14
12 12 11 11 10 10 10 9 10 10 10 9 9 9 9 9 9 8 7 8 8 8 7 7 7 7 8 8 8 8 8 8 8 8 8 9 9 10 10 10 11 12 12 13 14 14 15 15 15
13 11 11 11 10 11 10 9 9 10 9 9 9 9 9 10 10 10 9 9 9 9 9 8 8 8 8 8 9 8 9 8 9 9 10 10 11 11 11 12 13 13 14 14 15 16 16 17 17
13 11 10 10 10 11 11 10 9 10 9 9 9 9 10 10 11 11 11 10 10 10 10 9 9 9 9 10 9 9 8 9 10 10 11 11 12 12 13 13 14 14 15 16 16 16 17 17 18
14 12 12 12 12 12 13 12 11 10 10 10 11 11 12 12 11 11 11 11 11 11 11 10 10 10 10 10 10 10 10 11 11 12 13 13 13 13 14 15 15 16 16 17 17 18 18 18 19
15 15 15 14 13 13 14 14 12 12 12 12 12 13 13 13 12 12 11 11 11 11 11 11 11 11 11 11 11 11 11 12 13 13 14 14 14 15 16 17 17 18 18 18 19 19 19 20 20
18 17 15 14 14 14 15 15 14 14 14 14 14 13 13 12 13 13 12 11 12 12 12 11 12 11 12 13 13 12 12 12 13 13 14 15 15 16 17 18 19 19 19 20 20 20 21 21 21
19 18 17 16 17 15 15 16 16 15 14 15 15 14 13 13 13 13 12 12 12 12 12 13 13 13 13 13 13 13 13 14 14 14 15 16 17 17 18 19 20 20 20 21 21 21 22 22 22
20 19 19 18 18 18 17 17 17 15 15 16 15 15 14 14 14 14 13 13 12 12 12 13 13 14 13 13 13 14 15 16 16 16 17 18 19 19 19 20 21 21 21 21 22 22 22 22 22
Wind_Direction
77 77 78 75 72 66 63 63 64 64 67 68 68 67 65 60 60 54 47 42 40 41 34 21 352 227 178 189 198 201 195 192 189 187 187 187 186 185 186 189 190 194 203 209 215 220 226 229 230
76 75 74 72 73 67 62 62 63 61 64 67 69 66 63 58 57 50 43 41 40 42 42 36 34 59 172 187 196 195 196 194 191 188 190 190 189 188 192 193 190 200 201 207 216 224 231 234 237
75 74 73 73 74 69 63 61 62 60 61 64 65 63 59 54 52 44 41 42 41 39 38 35 31 5 187 182 190 191 192 186 185 188 192 191 193 193 197 199 197 199 198 203 210 220 229 234 238
76 76 72 70 71 68 65 63 61 62 61 61 59 58 53 50 49 42 42 42 43 43 36 33 35 48 128 154 169 170 176 177 174 173 175 182 183 186 192 197 202 204 211 221 227 225 227 235 240
78 75 72 66 66 65 65 61 59 61 59 58 55 53 48 47 45 41 40 42 45 42 39 35 34 38 85 132 153 161 163 167 166 165 167 172 178 180 185 197 204 209 218 224 231 232 232 238 243
79 78 79 73 66 63 61 60 59 58 54 52 51 50 46 46 44 43 43 43 42 42 40 34 37 55 81 104 116 132 150 162 166 164 166 170 171 175 183 195 208 213 221 225 230 235 238 242 250
82 79 78 75 69 66 61 58 55 55 51 49 50 48 47 44 44 44 45 44 42 42 39 35 39 63 76 87 102 117 139 149 157 161 163 167 169 177 187 199 213 222 228 236 241 243 243 251 262
83 76 69 75 75 64 60 53 51 50 47 45 46 44 42 45 45 43 43 44 44 43 41 41 53 68 77 89 100 118 132 138 145 150 152 156 160 173 189 206 215 224 233 245 251 249 250 257 264
81 75 69 71 69 62 53 44 39 41 40 39 41 39 37 40 44 45 44 44 45 44 45 51 65 73 75 86 97 117 126 128 134 143 137 142 153 169 186 194 203 227 247 253 256 255 255 267 271
84 79 67 66 65 56 46 39 33 36 34 35 35 38 37 38 40 42 45 45 45 44 47 58 69 72 73 80 95 111 126 127 129 135 133 136 144 150 160 169 196 228 265 271 282 269 268 277 277
86 72 57 57 66 55 47 39 31 31 36 34 33 36 37 42 45 43 46 45 43 44 43 53 63 64 73 82 99 107 117 123 122 120 131 127 124 125 132 145 158 270 286 287 309 290 289 286 282
92 49 36 43 48 48 43 37 31 28 30 31 32 34 37 41 47 48 47 43 39 42 47 51 54 63 78 89 96 99 109 115 111 107 118 126 128 117 110 131 273 272 301 321 323 311 307 300 292
176 342 18 29 35 40 38 34 31 28 27 29 35 38 36 35 38 43 44 40 41 42 45 49 57 62 69 81 92 93 99 97 94 100 113 120 86 51 7 292 300 304 308 317 324 324 320 306 304
207 275 339 357 10 22 25 25 21 21 18 23 31 34 34 32 33 35 37 38 40 40 45 48 53 55 62 69 79 84 84 76 68 85 102 52 7 359 338 322 320 311 315 320 322 312 310 314 314
222 270 314 327 333 351 4 9 12 12 10 15 24 27 28 27 30 30 29 30 34 34 38 43 44 46 49 53 55 64 55 41 39 40 17 5 6 5 347 333 320 315 323 319 320 317 309 307 308
252 276 288 294 308 327 344 349 350 354 357 6 12 18 20 19 16 16 18 19 24 26 31 36 37 39 39 38 32 34 17 10 4 344 343 348 356 348 332 324 317 319 324 323 318 315 314 311 312
262 260 258 277 292 313 329 330 336 341 344 355 3 6 6 6 6 8 10 9 11 14 19 22 25 29 31 28 17 3 3 346 339 342 342 341 342 339 339 332 324 319 327 327 323 321 318 320 322
244 245 260 273 286 298 314 320 329 335 337 341 349 351 352 351 352 354 358 359 359 359 7 8 10 15 18 18 9 360 352 336 333 344 330 325 323 323 322 320 322 325 326 324 321 317 318 319 315
239 244 259 271 279 290 304 312 317 328 330 331 332 335 339 341 344 343 343 345 346 345 351 357 358 358 4 6 1 0 352 340 330 326 322 315 311 306 307 316 320 321 321 322 320 316 314 312 310
242 247 254 266 274 284 296 304 306 311 316 320 320 321 324 326 328 335 331 328 334 337 338 343 348 351 355 353 349 348 346 342 332 326 323 314 309 306 308 313 315 316 319 319 313 311 311 308 306
245 247 251 262 271 281 289 298 300 300 304 310 313 313 316 319 319 319 318 316 322 328 329 329 333 336 344 341 337 336 331 334 332 326 322 322 316 307 309 308 310 312 313 313 311 308 306 305 304
248 251 251 259 272 281 286 292 298 298 300 303 308 307 311 313 316 314 313 312 312 315 316 314 314 315 321 325 325 323 326 329 326 325 326 327 323 316 314 312 310 310 309 307 307 306 304 302 301
249 256 257 261 269 274 283 289 292 299 298 298 302 303 304 308 309 312 311 307 304 304 305 306 305 306 312 316 317 320 325 323 324 326 327 323 320 320 319 316 310 306 305 305 304 303 302 303 301
252 259 263 268 271 272 275 280 285 295 295 297 298 299 299 304 307 306 305 303 300 299 300 299 300 299 302 307 310 316 323 324 323 322 322 322 322 322 321 319 316 311 307 306 304 302 302 302 301
248 254 263 267 269 271 273 274 277 285 290 290 291 297 301 301 303 299 297 299 296 295 297 296 294 295 297 301 304 308 316 319 320 320 321 323 324 321 318 317 314 312 309 308 306 303 302 301 300
246 246 248 255 261 269 274 273 275 279 286 290 290 293 298 299 296 293 293 293 293 294 294 295 294 296 296 299 303 308 313 316 318 319 319 317 317 314 314 315 314 312 310 310 308 306 303 301 301
246 246 250 256 261 264 268 272 274 277 281 287 290 293 297 297 294 290 290 292 294 292 290 291 292 293 297 299 301 307 312 315 316 316 322 316 316 315 313 314 312 311 311 311 308 305 303 301 301
245 248 252 254 259 263 267 272 274 277 280 283 287 290 292 293 294 290 289 289 291 289 285 284 285 287 292 296 299 302 307 314 318 319 320 318 314 312 313 313 313 312 310 309 306 304 303 302 301
247 248 250 254 257 262 266 269 271 276 278 278 282 287 288 288 290 291 291 290 289 287 285 284 283 285 290 295 299 303 304 308 312 313 315 316 316 313 311 311 311 310 309 308 306 305 303 301 300
247 248 250 253 259 260 262 266 269 271 273 274 279 284 284 282 285 288 288 287 285 286 286 287 284 284 288 295 303 305 306 308 308 310 312 313 314 316 313 312 311 309 308 307 307 306 303 301 300
Height
5897 5896 5896 5896 5896 5897 5895 5894 5892 5890 5889 5888 5886 5885 5884 5883 5883 5883 5880 5877 5875 5874 5873 5872 5872 5871 5871 5870 5870 5870 5870 5870 5871 5872 5873 5873 5874 5875 5876 5876 5877 5878 5878 5879 5879 5879 5880 5880 5880
5898 5898 5898 5898 5898 5898 5897 5895 5893 5891 5890 5888 5887 5886 5884 5883 5882 5881 5879 5877 5875 5874 5873 5872 5871 5870 5870 5870 5869 5869 5868 5869 5869 5870 5871 5872 5873 5874 5875 5875 5876 5877 5877 5878 5878 5878 5879 5879 5879
5900 5899 5899 5900 5899 5899 5898 5896 5894 5892 5890 5889 5888 5887 5885 5884 5882 5881 5879 5877 5876 5874 5873 5872 5870 5870 5869 5868 5867 5867 5866 5867 5868 5869 5870 5871 5872 5873 5874 5874 5875 5875 5876 5877 5877 5877 5877 5878 5878
5901 5901 5901 5902 5901 5900 5898 5897 5895 5893 5892 5890 5889 5888 5886 5884 5883 5881 5879 5878 5876 5874 5873 5871 5870 5869 5868 5867 5866 5864 5863 5865 5866 5868 5869 5871 5872 5872 5873 5873 5874 5875 5875 5876 5876 5876 5876 5876 5877
5902 5902 5904 5904 5902 5901 5899 5898 5896 5894 5893 5891 5890 5889 5887 5885 5883 5882 5880 5878 5877 5875 5873 5872 5870 5869 5868 5866 5865 5862 5862 5864 5866 5868 5869 5870 5871 5872 5872 5873 5873 5874 5874 5875 5875 5875 5875 5875 5875
5904 5904 5906 5905 5903 5902 5901 5899 5897 5896 5894 5893 5891 5890 5888 5886 5884 5882 5881 5879 5877 5875 5873 5872 5870 5869 5868 5867 5865 5863 5863 5865 5867 5868 5869 5870 5871 5871 5872 5872 5872 5873 5873 5873 5873 5873 5873 5874 5874
5906 5906 5906 5906 5905 5904 5902 5900 5899 5897 5895 5894 5892 5891 5889 5887 5885 5883 5881 5880 5878 5876 5874 5872 5870 5869 5868 5867 5866 5865 5865 5867 5867 5868 5869 5870 5871 5871 5871 5872 5872 5872 5872 5872 5872 5872 5872 5872 5872
5906 5908 5908 5907 5906 5905 5903 5901 5899 5898 5896 5895 5893 5891 5889 5888 5886 5884 5882 5880 5878 5876 5873 5871 5869 5869 5868 5868 5867 5867 5867 5867 5868 5869 5869 5870 5870 5871 5871 5871 5871 5871 5871 5871 5870 5871 5871 5871 5870
5907 5910 5909 5908 5907 5906 5904 5902 5901 5899 5897 5896 5894 5892 5890 5888 5886 5885 5883 5881 5879 5877 5874 5871 5870 5870 5869 5868 5868 5868 5868 5868 5869 5869 5870 5870 5870 5870 5871 5871 5870 5870 5870 5869 5869 5869 5869 5869 5869
5909 5910 5909 5908 5907 5906 5905 5903 5902 5900 5898 5897 5895 5893 5891 5889 5887 5886 5884 5882 5880 5878 5876 5874 5872 5871 5870 5869 5868 5868 5869 5870 5870 5870 5870 5870 5870 5870 5870 5870 5870 5870 5869 5869 5868 5868 5868 5868 5867
5909 5910 5909 5908 5907 5906 5905 5904 5902 5901 5899 5898 5896 5894 5892 5890 5888 5887 5885 5883 5881 5879 5878 5876 5874 5873 5872 5871 5870 5870 5870 5871 5871 5871 5871 5871 5871 5870 5870 5870 5870 5869 5869 5868 5867 5867 5867 5867 5866
5910 5910 5909 5909 5908 5907 5906 5904 5903 5902 5901 5899 5897 5895 5893 5891 5890 5888 5886 5884 5882 5880 5879 5877 5876 5874 5873 5873 5872 5872 5872 5872 5872 5872 5871 5871 5871 5871 5870 5870 5869 5869 5868 5868 5867 5867 5866 5865 5865
5910 5910 5909 5909 5909 5907 5906 5905 5904 5902 5901 5900 5898 5896 5894 5893 5891 5889 5888 5886 5884 5882 5880 5878 5877 5876 5875 5874 5874 5874 5874 5874 5873 5872 5872 5872 5871 5871 5870 5870 5869 5868 5868 5867 5866 5866 5865 5864 5863
5910 5910 5909 5909 5909 5908 5907 5906 5905 5903 5902 5900 5899 5897 5896 5894 5892 5891 5889 5887 5885 5883 5881 5880 5878 5877 5876 5876 5875 5875 5874 5874 5874 5873 5872 5872 5871 5871 5870 5869 5869 5868 5867 5866 5865 5865 5864 5863 5862
5909 5910 5910 5909 5909 5908 5908 5907 5905 5904 5902 5901 5900 5898 5897 5895 5893 5891 5890 5888 5886 5885 5883 5881 5879 5878 5877 5876 5876 5875 5875 5875 5874 5873 5873 5872 5871 5870 5869 5869 5868 5867 5866 5865 5864 5863 5863 5862 5861
5909 5910 5911 5910 5909 5908 5909 5908 5906 5904 5902 5901 5900 5898 5897 5896 5894 5892 5890 5889 5887 5885 5883 5882 5880 5879 5877 5877 5876 5876 5875 5874 5874 5873 5872 5871 5870 5869 5868 5867 5867 5866 5865 5864 5863 5862 5861 5860 5859
5909 5910 5910 5910 5908 5908 5908 5907 5905 5903 5902 5901 5900 5899 5897 5896 5894 5892 5891 5889 5887 5886 5884 5882 5881 5879 5878 5877 5877 5876 5875 5874 5873 5873 5872 5871 5870 5869 5868 5867 5866 5866 5864 5863 5862 5861 5860 5859 5858
5908 5909 5909 5909 5908 5907 5907 5906 5905 5903 5902 5901 5900 5898 5897 5896 5894 5892 5891 5889 5888 5886 5885 5883 5881 5880 5879 5878 5877 5876 5875 5875 5874 5873 5872 5871 5870 5868 5867 5866 5866 5865 5863 5862 5861 5860 5859 5858 5857
5906 5907 5908 5907 5906 5906 5906 5905 5904 5902 5901 5900 5899 5898 5897 5895 5894 5892 5891 5889 5888 5886 5885 5883 5882 5881 5880 5878 5877 5876 5875 5874 5873 5872 5871 5870 5869 5868 5867 5866 5864 5863 5862 5861 5860 5858 5857 5856 5855
5904 5905 5906 5905 5905 5905 5905 5904 5903 5901 5900 5899 5898 5897 5896 5894 5893 5892 5890 5889 5888 5886 5885 5883 5882 5881 5880 5879 5877 5876 5875 5874 5873 5871 5870 5869 5868 5867 5865 5864 5863 5862 5861 5859 5858 5857 5856 5855 5853
5901 5903 5903 5903 5903 5903 5903 5903 5901 5900 5898 5897 5897 5896 5895 5893 5892 5891 5890 5888 5887 5886 5885 5884 5882 5881 5880 5878 5877 5876 5874 5873 5872 5870 5869 5868 5866 5865 5864 5862 5861 5860 5859 5858 5857 5855 5854 5852 5851
5899 5900 5900 5901 5901 5902 5902 5902 5900 5898 5897 5896 5895 5894 5893 5892 5891 5890 5889 5887 5886 5885 5884 5883 5882 5880 5879 5877 5876 5875 5873 5872 5871 5869 5868 5866 5865 5863 5862 5860 5859 5858 5857 5855 5854 5852 5851 5849 5848
5896 5897 5898 5898 5899 5900 5899 5900 5899 5896 5895 5894 5894 5892 5892 5891 5889 5888 5887 5886 5885 5884 5883 5882 5880 5879 5878 5876 5875 5873 5872 5871 5869 5868 5866 5865 5863 5862 5860 5858 5857 5855 5854 5852 5850 5849 5847 5845 5844
5893 5894 5895 5895 5897 5898 5897 5898 5897 5895 5893 5893 5892 5890 5890 5889 5888 5887 5885 5884 5883 5882 5881 5880 5879 5878 5876 5875 5874 5872 5871 5869 5868 5867 5865 5863 5861 5860 5858 5856 5854 5852 5851 5849 5847 5845 5843 5841 5840
5890 5892 5894 5895 5896 5896 5895 5894 5895 5892 5891 5891 5890 5889 5888 5887 5886 5885 5883 5882 5881 5880 5879 5878 5877 5876 5875 5874 5872 5871 5869 5868 5866 5865 5863 5861 5859 5857 5855 5854 5851 5849 5847 5845 5843 5841 5839 5837 5835
5887 5889 5892 5893 5894 5894 5892 5891 5892 5890 5889 5888 5887 5886 5885 5885 5883 5882 5881 5880 5879 5878 5877 5876 5875 5874 5872 5871 5870 5869 5868 5866 5864 5862 5860 5858 5857 5855 5853 5850 5848 5846 5843 5841 5839 5837 5835 5833 5831
5883 5885 5887 5889 5889 5890 5890 5889 5888 5887 5886 5885 5884 5884 5883 5882 5881 5880 5879 5877 5876 5875 5874 5873 5872 5871 5870 5869 5868 5867 5865 5863 5861 5859 5857 5855 5854 5851 5849 5847 5845 5842 5839 5837 5835 5832 5830 5828 5826
5879 5881 5883 5884 5885 5886 5887 5886 5885 5883 5883 5882 5881 5880 5880 5879 5878 5877 5876 5875 5874 5873 5872 5871 5870 5869 5868 5867 5865 5864 5862 5860 5858 5856 5854 5852 5850 5848 5846 5843 5840 5838 5835 5832 5830 5828 5825 5823 5821
5875 5877 5878 5879 5880 5882 5883 5884 5881 5880 5879 5879 5878 5877 5876 5876 5875 5874 5872 5871 5870 5869 5868 5867 5867 5866 5864 5863 5862 5861 5859 5858 5856 5853 5851 5849 5847 5844 5842 5839 5836 5834 5831 5828 5825 5823 5820 5818 5815
5870 5872 5873 5875 5875 5876 5878 5881 5876 5876 5875 5875 5874 5873 5873 5872 5871 5870 5869 5868 5867 5866 5865 5864 5863 5862 5861 5860 5859 5858 5856 5854 5852 5850 5848 5845 5843 5840 5837 5835 5832 5829 5826 5824 5821 5818 5815 5812 5810